www.pogodaiklimat.ru

Погода и климат >> Архив погоды >> Узбекистан >> Ташкент


АРХИВ ПОГОДЫ в Ташкенте

Время (UTC), дата Ветер
(напр.,м/с)
 
Видим.   Явления Облачность Т
(С)
Тd
(С)
f
(%)
Тe
(С)
Тes
(С)
Комфортность P
(гПа)
Po
(гПа)
Тmin
(С)
Tmax
(С)
R
(мм)
R24
(мм)
S
(см)
09 14.06 ЮЗ 2 10 км в посл. час ливневой дождь 8/5 1000 м
[Cb calv Ac trans]
+30.9 +8.9 25 +30 +36 жарко 1002.8 949.7
12 14.06 ЮЗ 2 10 км слабый ливневой дождь 9/9 1000 м
[Cb calv]
+29.9 +8.9 27 +29 +30 жарко 1003.1 949.8
15 14.06 СЗ 3 10 км в посл. час ливневой дождь {гроза} 9/9 1000 м
[Cb calv]
+24.8 +10.4 40 +26 +26 жарко 1004.2 950.1 +32.3
18 14.06 В 2 10 км {гроза} 9/9 1000 м
[Sc]
+24.4 +10.4 41 +25 +25 комфорт 1005.2 950.9 +32.3 0.0
21 14.06 В 2 10 км слабый ливневой дождь 9/9 1000 м
[Cb calv]
+21.2 +13.8 63 +24 +24 комфорт 1006.4 951.5
00 15.06 ЮВ 2 50 км слабый ливневой дождь 9/9 1000 м
[Cb calv]
+20.4 +14.0 67 +20 +20 тепло 1007.4 952.3
03 15.06 Ю 2 50 км 4/3 1000 м
[Cb calv Ac lent Ci fib]
+21.0 +12.3 58 +24 +28 комфорт 1007.9 952.9
06 15.06 Ю 2 50 км 3/3 1000 м
[Cu hum Ac cast]
+25.6 +10.2 38 +26 +39 жарко 1008.1 953.8 +18.9 0.0
09 15.06 ЮВ 2 50 км 8/8 1000 м
[Cb cap Ci fib]
+27.9 +10.9 35 +29 +32 жарко 1007.6 953.8
12 15.06 С 4 2000 м сильная гроза, ливневой дождь 10/10 600 м
[Cb cap]
+19.3 +15.1 77 +21 +21 комфорт 1012.4 956.8
15 15.06 С 3 50 км {гроза, ливн. осадки} 6/3 1000 м
[Sc Ac cast Cs]
+19.7 +12.8 64 +22 +22 комфорт 1010.8 955.4 +29.2
18 15.06 В 1 10 км зарница {гроза, ливн. осадки} 4/0
[Ac cast Ci fib]
+17.6 +12.9 74 +19 +19 холодно 1012.5 956.6 +29.2 6
21 15.06 СВ 1 10 км ясно +16.2 +13.1 82 +17 +17 холодно 1012.0 955.9
00 16.06 С 2 50 км ясно +16.3 +11.1 71 +16 +16 прохладно 1011.3 955.2
03 16.06 штиль 0 50 км ясно +22.8 +11.7 50 +25 +34 комфорт 1010.0 955.2
06 16.06 ЮЗ 2 50 км ясно +26.6 +10.4 36 +27 +46 жарко 1008.5 954.4 +15.4
09 16.06 В 1 10 км ясно +28.2 +9.3 31 +28 +49 жарко 1008.1 954.3
12 16.06 ЮЗ 1 10 км ясно +30.2 +10.5 30 +30 +37 жарко 1005.5 952.2
15 16.06 Ю 1 50 км ясно +27.0 +11.0 37 +28 +28 жарко 1005.0 951.2 +30.6
18 16.06 СВ 1 10 км ясно +21.8 +14.5 63 +25 +25 комфорт 1005.2 950.5 +30.6
21 16.06 З 1 10 км ясно +19.3 +12.5 65 +22 +22 комфорт 1004.5 949.4
00 17.06 С 1 50 км ясно +19.1 +12.9 67 +21 +21 комфорт 1003.8 948.7
03 17.06 СВ 1 50 км ясно +25.4 +13.0 46 +27 +35 жарко 1002.7 948.7
06 17.06 ЮЗ 1 50 км 1/1 1000 м
[Cu hum]
+30.4 +11.0 30 +31 +50 жарко 1001.6 948.5 +18.0
09 17.06 ЮЗ 2 50 км 3/3 1000 м
[Cu hum]
+31.5 +8.9 25 +31 +43 жарко 1000.5 947.7
12 17.06 штиль 0 50 км 3/1 1000 м
[Cu hum Ci fib]
+32.1 +8.0 22 +31 +37 жарко 999.9 947.2
15 17.06 В 1 50 км ясно +28.4 +10.6 33 +29 +29 жарко 1000.3 947.0 +33.4
18 17.06 СВ 1 10 км ясно +24.2 +10.3 41 +25 +25 комфорт 1001.7 947.5 +33.4
21 17.06 С 1 10 км ясно +20.6 +10.7 53 +23 +23 комфорт 1002.2 947.4
00 18.06 СВ 1 50 км ясно +19.6 +10.4 55 +22 +22 комфорт 1002.3 947.3
03 18.06 В 1 50 км ясно +26.8 +7.6 30 +27 +34 жарко 1001.7 948.0
06 18.06 В 1 50 км 3/0
[Ci fib]
+33.0 +5.3 18 +31 +51 опасность
солнечного
удара
1000.7 948.0 +18.8
09 18.06 ЮЗ 2 50 км 3/0
[Ci fib]
+35.0 +3.2 14 +32 +49 жарко 999.3 947.0
12 18.06 СВ 2 50 км 3/0
[Ci fib]
+34.8 -0.7 10 +31 +36 жарко 998.9 946.6
15 18.06 ЮВ 1 50 км 3/0
[Ac lent Ci fib]
+30.0 +3.4 18 +28 +28 жарко 999.7 946.6 +35.8
18 18.06 СВ 1 10 км 4/0
[Ci fib]
+25.2 +7.1 31 +25 +25 комфорт 1000.9 946.9 +35.8
21 18.06 С 1 10 км 6/0
[Ci fib]
+23.4 +9.2 40 +25 +25 комфорт 1001.1 946.9
00 19.06 СВ 2 50 км 3/0
[Ac lent]
+22.5 +7.6 38 +23 +23 комфорт 1001.4 946.9
03 19.06 СВ 2 50 км 3/0
[Ci fib]
+29.0 +8.8 28 +29 +35 жарко 1000.1 946.9
06 19.06 В 3 50 км 6/1 1000 м
[Cu hum Cs]
+34.6 +5.6 17 +32 +44 жарко 999.0 946.7 +21.2
09 19.06 ЮЗ 3 50 км 8/4 1000 м
[Cb cap Ac trans Cs]
+36.5 +8.5 18 +35 +41 очень
жарко
998.1 946.2
12 19.06 ЮЗ 2 50 км 9/6 1000 м
[Cb cap Ac cast Ci fib]
+36.9 +3.6 13 +34 +35 очень
жарко
998.0 946.1
15 19.06 С 2 10 км в посл. час гроза {метель} 9/8 1000 м
[Cb cap Ac lent]
+29.4 +7.7 26 +29 +29 жарко 1001.4 948.1 +37.6
18 19.06 З 2 10 км {гроза, метель} 8/6 1000 м
[Cu hum Ac lent]
+25.2 +10.7 40 +26 +26 жарко 1003.8 949.7 +37.6
21 19.06 СВ 2 10 км слабый ливневой дождь 9/9 1000 м
[Cb cap]
+23.8 +11.9 47 +25 +25 комфорт 1003.9 949.6
00 20.06 штиль 0 10 км {ливн. осадки} 9/8 1000 м
[Cu Sc Ac lent]
+22.9 +13.2 54 +26 +26 жарко 1004.6 950.1
03 20.06 СВ 2 10 км в посл. час ливневой дождь 8/6 1000 м
[Cb cap Ac lent]
+26.2 +10.7 38 +27 +29 жарко 1005.9 951.8
06 20.06 ЮЗ 2 10 км {ливн. осадки} 6/4 1000 м
[Cb calv Ac trans]
+29.2 +13.7 39 +31 +40 жарко 1006.6 953.1 +22.5 0.0
09 20.06 ЮЗ 2 10 км 1/1 1000 м
[Cu hum]
+32.2 +10.6 27 +32 +48 жарко 1005.7 952.8
12 20.06 ЮЗ 2 10 км 3/1 1000 м
[Cu hum Ac lent]
+32.8 +6.5 19 +31 +35 жарко 1005.8 952.9
15 20.06 ЮЗ 1 50 км 3/3 1000 м
[Sc]
+29.4 +7.7 26 +29 +29 жарко 1006.9 953.3 +33.6
18 20.06 СВ 2 10 км 3/0
[Ac trans]
+23.6 +7.7 36 +24 +24 комфорт 1009.2 954.5 +33.6 0.0
21 20.06 С 2 10 км ясно +20.7 +9.8 50 +23 +23 комфорт 1009.9 954.6
00 21.06 штиль 0 50 км ясно +18.6 +10.4 59 +19 +19 по сезону 1010.4 954.8
03 21.06 ЮЗ 1 50 км ясно +25.9 +10.9 39 +27 +35 жарко 1010.1 955.8
06 21.06 Ю 1 10 км 1/1 600 м
[Cu hum]
+29.3 +10.5 31 +29 +49 жарко 1009.4 955.8 +18.3

 

Местоположение метеостанции Ташкент (Ташкентская область, Узбекистан): широта 41.27 долгота 69.27 высота над уровнем моря 466 м.

В архиве по умолчанию представлена погода в Ташкенте за последнюю неделю. Архивные данные за месяц целиком и за предыдущие месяцы, начиная с января 2011 года, Вы можете получить, выбрав интересующий диапазон дат из раскрывающегося списка и нажав кнопку "Ввод!".


*Определитесь, кто Вы:
робот инопланетянин человек

Внимание! Время в таблицах - всемирное. Для получения местного времени необходимо прибавить поправку, которая в Ташкенте равна 5 ч.

Смотрите также архив погоды в соседних городах и на ближайших метеорологических станциях:

Погода в Каунчи (Ташкентская область, Узбекистан) (31 км)
Погода в Туябугузе (Ташкентская область, Узбекистан) (37 км)
Погода в Келесе (Южно-Казахстанская область, Казахстан) (38 км)
Погода в Красноярской (Южно-Казахстанская область, Казахстан) (54 км)
Погода в Казыгурте (Южно-Казахстанская область, Казахстан) (55 км)
Погода в Дуканте (Ташкентская область, Узбекистан) (68 км)
Погода в Чимгане (Ташкентская область, Узбекистан) (70 км)
Погода в Сырдарье (Сырдарьинская область, Узбекистан) (70 км)
Погода в Ангрене (Ташкентская область, Узбекистан) (82 км)
Погода в Жетысае (Южно-Казахстанская область, Казахстан) (96 км)

Пояснения к столбцам:

Ветер - указаны скорость ветра в м/с - средняя за 10 мин, порывы в срок и между сроками (в фигурных скобках) и направление, откуда дует ветер: С - северный, СВ - северо-восточный, В - восточный, ЮВ - юго-восточный, Ю - южный, ЮЗ - юго-западный, З - западный, СЗ - северо-западный.
Видимость - горизонтальная дальность видимости в метрах или километрах. При видимости от 1 до 10 км при отсутствии осадков обычно наблюдается дымка, при ухудшении видимости до 1 км и менее - туман. В сухую погоду видимость может ухудшаться дымом, пылью или мглою.
Явления - указаны атмосферные явления, наблюдавшиеся в срок или в последний час перед сроком; фигурными скобками обозначены явления, наблюдавшиеся между сроками (за 1-3 часа до срока); квадратными скобками обозначены град или гололедные отложения с указанием их диаметра в мм.
Облачность - указаны через наклонную черту общая и нижняя облачность в баллах и высота нижней границы облаков в метрах; квадратными скобками обозначены формы облаков: Ci - перистые, Cs - перисто-слоистые, Cc - перисто-кучевые, Ac - высококучевые, As - высокослоистые, Sc - слоисто-кучевые, Ns - слоисто-дождевые, Cu - кучевые, Cb - кучево-дождевые. Подробнее классификацию облаков см. в Атласе облаков (PDF).
T - Температура воздуха - температура, измеренная на высоте 2 м над землей.
Td - Температура точки росы - температура, при понижении до которой содержащийся в воздухе водяной пар достигнет насыщения.
f - Относительная влажность воздуха - влажноcть воздуха, измеренная на высоте 2 м над землей.
Te - Эффективная температура - температура, которую ощущает одетый по сезону человек в тени. Характеристика душности погоды. При расчете учитывается влияние влажности воздуха и скорости ветра на теплоощущения человека.
Tes - Эффективная температура на солнце - температура, которую ощущает человек, с поправкой на солнечный нагрев. Характеристика знойности погоды. Зависит от высоты солнца над горизонтом, облачности и скорости ветра. Ночью, в пасмурную погоду, а также при ветре 12 м/с и более поправка равна нулю.
P - Атмосферное давление - приведенное к уровню моря атмосферное давление.
Po - Атмосферное давление - измеренное на уровне метеостанции атмосферное давление.
Tmin - Минимальная температура - минимум температуры воздуха на высоте 2 м над землей.
Tmax - Максимальная температура - максимум температуры воздуха на высоте 2 м над землей.
R - Количество осадков - Количество выпавших осадков за период времени, мм. При наведении курсора мыши на число - период времени, за который выпало указанное количество осадков.
R24 - Количество осадков - Количество выпавших осадков за 24 часа, мм.
S - Снежный покров - Высота снежного покрова, см. При наведении курсора мыши на число - состояние снежного покрова и степень покрытия местности в баллах.